Home > Time Zones > World Clock > Weather > Germany > Ulm > Past weeks

Flag for Germany Weather past 2 weeks in Ulm, Baden-Württemberg, Germany

Now
72 °F

Passing clouds.


Feels Like: 71 °F
Forecast: 60 / 72 °F
Wind: 1 mph from East

Location: Laupheim Airport

Current Time: Jul 7, 2015 at 9:02:29 AM

Latest Report: Jul 7, 2015 at 8:20 AM


Visibility: N/A

Pressure: 30.04 "Hg

Humidity: 83%

Dew point: 66 °F

Location of UlmLocation

Historic Weather in Ulm — Graph

°F

Ulm temperature yesterday

Maximum temperature yesterday: 82 °F (at 4:20 PM)
Minimum temperature yesterday: 68 °F (at 4:20 AM)
Average temperature yesterday: 76 °F

Past Weeks' High & Low Weather Summary

 TemperatureHumidityPressure
High93 °F (Jul 5, 2:20 PM)100% (Jul 7, 4:20 AM)30.30 "Hg (Jul 7, 4:20 AM)
Low46 °F (Jun 25, 5:20 AM)32% (Jul 5, 5:20 PM)29.74 "Hg (Jun 22, 9:20 PM)
Average68 °F68%30.14 "Hg
* Reported Jun 22 7:20 AM — Jul 7 7:47 AM, Ulm, Weather by CustomWeather, © 2015

Note: Actual official high and low records may vary slightly from our data, if they occured in-between our weather recording intervals... More about our weather records

Advertising

Ulm weather history for previous 24 hours

 ConditionsComfort  
Time TempWeatherWind HumidityBarometerVisibility
7:47 AM
Tue, Jul 7
70 °FPassing clouds.No wind83%30.04 "Hg6 mi
7:20 AM68 °FPassing clouds.1 mph88%30.04 "Hg4 mi
6:45 AM64 °FFog.2 mph100%30.04 "Hg3 mi
5:20 AM64 °FFog.1 mph94%30.07 "Hg4 mi
4:20 AM64 °FFog.2 mph100%30.07 "Hg6 mi
3:20 AM66 °FMild.1 mph94%30.07 "HgN/A
2:20 AM68 °FMild.1 mph94%30.09 "HgN/A
1:20 AM68 °FMild.No wind94%30.09 "HgN/A
12:20 AM70 °FMild.2 mph88%30.09 "HgN/A
11:20 PM
Mon, Jul 6
73 °FMild.3 mph78%30.12 "HgN/A
10:20 PM75 °FPassing clouds.6 mph74%30.12 "HgN/A
9:20 PM77 °FPassing clouds.6 mph69%30.12 "HgN/A
8:20 PM81 °FPassing clouds.3 mph58%30.12 "HgN/A
7:20 PM82 °FPassing clouds.6 mph55%30.12 "HgN/A
6:20 PM82 °FPassing clouds.3 mph51%30.12 "HgN/A
5:20 PM82 °FPassing clouds.3 mph55%30.12 "HgN/A
5:00 PM82 °FPassing clouds.6 mph55%30.15 "HgN/A
4:20 PM82 °FPassing clouds.5 mph55%30.15 "HgN/A
3:20 PM81 °FScattered clouds.6 mph58%30.15 "HgN/A
2:20 PM79 °FScattered clouds.3 mph65%30.18 "HgN/A
1:20 PM77 °FScattered clouds.7 mph65%30.18 "HgN/A
12:20 PM77 °FScattered clouds.2 mph65%30.21 "HgN/A
11:20 AM73 °FScattered clouds.3 mph74%30.21 "HgN/A
10:20 AM73 °FScattered clouds.5 mph74%30.21 "HgN/A
9:20 AM72 °FScattered clouds.5 mph73%30.24 "HgN/A
Weather by CustomWeather, © 2015

See weather overviewHow to use our weather pages